FW0525 Weather Reports


Display with metric or nautical units.
time (UTC)temp
F
wind
direction
speed
MPH
gust
MPH
rain 1hr
in
rain 24hr
in
rain mn
in
humidity
%
barometer
mb
20210805133712 85 227 1.0 11.0 0.00 0.01 0.00 82 1020.0
20210805133206 85 229 1.0 11.0 0.00 0.01 0.00 83 1020.0
20210805132700 85 132 1.0 6.0 0.00 0.01 0.00 84 1019.9
20210805132154 85 336 1.0 5.0 0.00 0.01 0.00 84 1019.9
20210805131650 84 146 1.0 10.0 0.00 0.01 0.00 84 1019.8
20210805131143 84 120 1.0 10.0 0.00 0.01 0.00 82 1019.7
20210805130637 85 250 0.0 3.0 0.00 0.01 0.00 83 1019.8
20210805130131 85 95 1.0 3.0 0.00 0.01 0.00 85 1019.7
20210805125626 84 236 0.0 2.0 0.00 0.01 0.00 85 1019.6
20210805125119 85 191 0.0 1.0 0.00 0.01 0.00 85 1019.5
20210805124612 84 186 0.0 3.0 0.00 0.01 0.00 86 1019.4
20210805124107 84 143 0.0 3.0 0.00 0.01 0.00 86 1019.4
20210805123600 83 138 0.0 3.0 0.00 0.01 0.00 87 1019.4
20210805123055 83 191 0.0 3.0 0.00 0.01 0.00 87 1019.3
20210805122548 82 71 0.0 0.0 0.00 0.01 0.00 88 1019.2
20210805122042 82 11 0.0 0.0 0.00 0.01 0.00 90 1019.1
20210805121536 81 110 0.0 3.0 0.00 0.01 0.00 91 1019.2
20210805121030 80 135 0.0 3.0 0.00 0.01 0.00 91 1019.0
20210805120525 79 272 0.0 0.0 0.00 0.01 0.00 91 1019.0
20210805120018 79 108 0.0 0.0 0.00 0.01 0.00 92 1019.0
20210805115512 78 121 0.0 0.0 0.00 0.01 0.00 93 1018.9
20210805115006 78 121 0.0 0.0 0.00 0.01 0.00 94 1018.9
20210805114501 77 121 0.0 1.0 0.00 0.01 0.00 94 1018.9
20210805113954 76 121 0.0 1.0 0.00 0.01 0.00 95 1018.9
20210805113448 76 125 0.0 0.0 0.00 0.01 0.00 95 1018.9
20210805112943 75 125 0.0 0.0 0.00 0.01 0.00 95 1018.9
20210805112437 75 125 0.0 0.0 0.00 0.01 0.00 95 1018.9
20210805111931 75 125 0.0 0.0 0.00 0.01 0.00 95 1018.8
20210805111425 75 125 0.0 0.0 0.00 0.01 0.00 95 1018.9
20210805110918 74 125 0.0 0.0 0.00 0.01 0.00 95 1018.9
20210805110415 74 125 0.0 0.0 0.00 0.01 0.00 95 1018.9
20210805105906 74 125 0.0 0.0 0.00 0.01 0.00 95 1018.9
20210805105400 74 125 0.0 0.0 0.00 0.01 0.00 95 1018.9
20210805104855 74 125 0.0 0.0 0.00 0.01 0.00 95 1018.9
20210805104349 74 125 0.0 0.0 0.00 0.01 0.00 95 1018.9
20210805103843 74 125 0.0 0.0 0.00 0.01 0.00 95 1018.8
20210805103336 74 125 0.0 0.0 0.00 0.01 0.00 95 1018.7
20210805102832 74 125 0.0 0.0 0.00 0.01 0.00 95 1018.6
20210805102324 74 125 0.0 0.0 0.00 0.01 0.00 95 1018.6
20210805101819 74 125 0.0 0.0 0.00 0.01 0.00 95 1018.6
20210805101312 75 125 0.0 0.0 0.00 0.01 0.00 95 1018.6
20210805100806 75 125 0.0 0.0 0.00 0.01 0.00 95 1018.7
20210805100300 75 125 0.0 0.0 0.00 0.01 0.00 95 1018.6
20210805095754 75 125 0.0 0.0 0.00 0.01 0.00 95 1018.7
20210805095248 75 126 0.0 1.0 0.00 0.01 0.00 95 1018.5
20210805094742 75 105 0.0 1.0 0.00 0.01 0.00 95 1018.4
20210805094237 75 150 0.0 1.0 0.00 0.01 0.00 95 1018.4
20210805093731 75 163 0.0 1.0 0.00 0.01 0.00 95 1018.4
20210805093224 75 153 0.0 0.0 0.00 0.01 0.00 96 1018.4
20210805092718 75 314 0.0 2.0 0.00 0.01 0.00 96 1018.4
20210805092213 75 212 0.0 2.0 0.00 0.01 0.00 96 1018.4
20210805091708 75 114 0.0 2.0 0.00 0.01 0.00 96 1018.2
20210805091201 75 169 0.0 2.0 0.00 0.01 0.00 96 1018.1
20210805090658 75 138 0.0 2.0 0.00 0.01 0.00 96 1018.1
20210805090158 75 179 0.0 2.0 0.00 0.01 0.00 96 1018.2
20210805085659 75 145 0.0 1.0 0.00 0.01 0.00 96 1018.0
20210805085158 75 139 0.0 0.0 0.00 0.01 0.00 96 1018.0
20210805084700 75 139 0.0 1.0 0.00 0.01 0.00 96 1018.0
20210805084158 75 139 0.0 1.0 0.00 0.01 0.00 96 1018.0
20210805083658 75 132 0.0 0.0 0.00 0.01 0.00 96 1018.0
20210805083158 75 132 0.0 0.0 0.00 0.01 0.00 96 1018.0
20210805082659 75 246 0.0 1.0 0.00 0.01 0.00 96 1017.8
20210805082159 75 246 0.0 1.0 0.00 0.01 0.00 96 1017.7
20210805081659 75 81 0.0 1.0 0.00 0.01 0.00 95 1017.7
20210805081158 75 84 0.0 0.0 0.00 0.01 0.00 95 1017.6
20210805080658 75 84 0.0 0.0 0.00 0.01 0.00 95 1017.7
20210805080159 75 167 0.0 0.0 0.00 0.01 0.00 96 1017.5
20210805075658 75 180 0.0 0.0 0.00 0.01 0.00 95 1017.6
20210805075159 75 181 0.0 0.0 0.00 0.01 0.00 96 1017.6
20210805074659 75 136 0.0 0.0 0.00 0.01 0.00 96 1017.7
20210805074153 75 136 0.0 0.0 0.00 0.01 0.00 95 1017.8
20210805073647 75 136 0.0 0.0 0.00 0.01 0.00 95 1017.8
20210805073147 75 136 0.0 0.0 0.00 0.01 0.00 95 1017.8
20210805072645 75 136 0.0 0.0 0.00 0.01 0.00 95 1017.7
20210805072142 75 136 0.0 0.0 0.00 0.01 0.00 95 1017.6
20210805071640 75 136 0.0 0.0 0.00 0.01 0.00 95 1017.7
20210805071140 75 136 0.0 0.0 0.00 0.01 0.00 95 1017.8
20210805070639 75 136 0.0 0.0 0.00 0.01 0.00 95 1017.7
20210805070139 75 136 0.0 0.0 0.00 0.01 0.00 95 1017.8
20210805065638 75 136 0.0 0.0 0.00 0.01 0.00 95 1017.8
20210805065139 75 136 0.0 0.0 0.00 0.01 0.00 95 1017.8
20210805064639 75 136 0.0 0.0 0.00 0.01 0.00 95 1018.0
20210805064138 75 136 0.0 0.0 0.00 0.01 0.00 95 1017.9
20210805063638 75 136 0.0 0.0 0.00 0.01 0.00 95 1017.9
20210805063134 76 136 0.0 0.0 0.00 0.01 0.00 95 1018.1
20210805062634 76 287 0.0 0.0 0.00 0.01 0.00 95 1018.1
20210805062134 75 235 0.0 0.0 0.00 0.01 0.00 95 1018.2
20210805061635 76 231 0.0 0.0 0.00 0.01 0.00 95 1018.3
20210805061134 76 231 0.0 2.0 0.00 0.01 0.00 95 1018.2
20210805060634 76 247 0.0 3.0 0.00 0.01 0.00 95 1018.4
20210805060134 76 237 0.0 3.0 0.00 0.01 0.00 95 1018.5
20210805055634 76 233 0.0 0.0 0.00 0.01 0.00 95 1018.5
20210805055134 76 233 0.0 1.0 0.00 0.01 0.00 95 1018.5
20210805054635 76 233 0.0 1.0 0.00 0.01 0.00 95 1018.5
20210805054135 76 194 0.0 0.0 0.00 0.01 0.00 95 1018.4
20210805053634 76 120 0.0 0.0 0.00 0.01 0.00 95 1018.5
20210805053134 76 120 0.0 0.0 0.00 0.01 0.00 95 1018.5
20210805052634 76 121 0.0 0.0 0.00 0.01 0.00 95 1018.5
20210805052136 76 139 0.0 0.0 0.00 0.01 0.00 95 1018.4
20210805051634 76 139 0.0 0.0 0.00 0.01 0.00 95 1018.5
20210805051134 76 139 0.0 1.0 0.00 0.01 0.00 95 1018.5
20210805050631 76 139 0.0 1.0 0.00 0.01 0.00 95 1018.7
20210805050125 76 99 0.0 0.0 0.00 0.01 0.00 95 1018.7
20210805045619 76 99 0.0 0.0 0.00 0.01 0.00 95 1018.9
20210805045113 76 99 0.0 1.0 0.00 0.01 0.00 95 1018.8
20210805044607 76 99 0.0 1.0 0.00 0.01 0.00 95 1018.8
20210805044101 76 138 0.0 0.0 0.00 0.01 0.00 95 1018.8
20210805043555 76 138 0.0 0.0 0.00 0.01 0.00 95 1018.8
20210805043049 76 138 0.0 0.0 0.00 0.01 0.00 95 1018.9
20210805042544 75 118 0.0 0.0 0.00 0.01 0.00 95 1018.9
20210805042039 75 118 0.0 0.0 0.00 0.01 0.00 95 1018.9
20210805041532 75 120 0.0 0.0 0.00 0.01 0.00 95 1018.9
20210805041026 75 120 0.0 0.0 0.00 0.01 0.00 95 1019.0
20210805040526 75 120 0.0 0.0 0.00 0.01 0.00 95 1019.0
20210805040018 75 120 0.0 0.0 0.00 0.01 0.00 95 1019.0
20210805035506 75 120 0.0 0.0 0.00 0.01 0.29 95 1019.1
20210805035000 75 120 0.0 0.0 0.00 0.01 0.29 95 1019.0
20210805034455 75 120 0.0 0.0 0.00 0.01 0.29 95 1019.1
20210805033948 75 120 0.0 0.0 0.00 0.01 0.29 95 1019.2
20210805033443 75 120 0.0 1.0 0.00 0.01 0.29 95 1019.1
20210805032937 75 120 0.0 1.0 0.00 0.01 0.29 95 1019.1
20210805032430 75 134 0.0 1.0 0.00 0.01 0.29 95 1019.1
20210805031925 75 229 0.0 0.0 0.00 0.01 0.29 95 1019.2
20210805031418 75 229 0.0 0.0 0.00 0.01 0.29 95 1019.2
20210805030913 75 229 0.0 0.0 0.00 0.01 0.29 95 1019.2
20210805030407 74 229 0.0 0.0 0.00 0.01 0.29 95 1019.2
20210805025900 75 229 0.0 0.0 0.00 0.01 0.29 95 1019.2
20210805025355 75 230 0.0 0.0 0.00 0.01 0.29 95 1019.2
20210805024848 75 230 0.0 0.0 0.00 0.01 0.29 95 1019.2
20210805024343 75 230 0.0 0.0 0.00 0.01 0.29 95 1019.1
20210805023836 75 229 0.0 0.0 0.00 0.01 0.29 95 1019.1
20210805023330 75 230 0.0 0.0 0.00 0.01 0.29 94 1019.0
20210805022824 75 229 0.0 0.0 0.00 0.01 0.29 94 1019.0
20210805022319 75 230 0.0 0.0 0.00 0.01 0.29 94 1019.0
20210805021814 75 229 0.0 0.0 0.00 0.01 0.29 94 1019.0
20210805021306 76 230 0.0 0.0 0.00 0.01 0.29 94 1019.1
20210805020801 76 230 0.0 0.0 0.00 0.01 0.29 94 1019.0
20210805020255 76 230 0.0 0.0 0.00 0.01 0.29 94 1019.0
20210805015748 76 230 0.0 0.0 0.00 0.01 0.29 94 1018.9
20210805015242 76 230 0.0 0.0 0.00 0.01 0.29 94 1018.8
20210805014736 76 230 0.0 0.0 0.00 0.01 0.29 94 1018.8
20210805014230 76 229 0.0 0.0 0.00 0.01 0.29 94 1018.7
20210805013724 76 230 0.0 0.0 0.00 0.01 0.29 94 1018.7
20210805013218 76 230 0.0 0.0 0.00 0.01 0.29 93 1018.6
20210805012712 76 230 0.0 0.0 0.00 0.01 0.29 93 1018.5
20210805012207 76 230 0.0 0.0 0.00 0.01 0.29 93 1018.5
20210805011700 76 230 0.0 0.0 0.00 0.01 0.29 93 1018.4
20210805011154 76 230 0.0 0.0 0.00 0.01 0.29 93 1018.2
20210805010649 76 229 0.0 0.0 0.00 0.01 0.29 93 1018.2
20210805010143 77 230 0.0 0.0 0.00 0.01 0.29 92 1018.1
20210805005637 77 230 0.0 0.0 0.00 0.01 0.29 92 1018.1
20210805005131 77 229 0.0 0.0 0.00 0.01 0.29 92 1018.0
20210805004628 77 230 0.0 0.0 0.00 0.01 0.29 92 1018.0
20210805004128 77 230 0.0 0.0 0.00 0.01 0.29 92 1018.0
20210805003626 77 230 0.0 0.0 0.00 0.01 0.29 92 1018.0
20210805003124 77 230 0.0 0.0 0.00 0.01 0.29 92 1018.1
20210805002624 77 230 0.0 1.0 0.00 0.01 0.29 91 1018.0
20210805002125 77 230 0.0 1.0 0.00 0.01 0.29 91 1018.0
20210805001625 77 262 0.0 0.0 0.00 0.01 0.29 91 1017.9
20210805001121 77 262 0.0 0.0 0.00 0.01 0.29 91 1017.7
20210805000618 78 263 0.0 0.0 0.00 0.01 0.29 91 1017.8
20210805000119 78 262 0.0 0.0 0.00 0.01 0.29 91 1017.6
20210804235618 78 262 0.0 2.0 0.00 0.01 0.29 90 1017.4
20210804235119 78 263 0.0 2.0 0.00 0.01 0.29 90 1017.5
20210804234618 78 304 0.0 3.0 0.00 0.01 0.29 90 1017.4
20210804234118 78 239 0.0 3.0 0.00 0.01 0.29 89 1017.3
20210804233614 78 238 0.0 2.0 0.00 0.01 0.29 89 1017.3
20210804233115 79 236 0.0 3.0 0.00 0.01 0.29 89 1017.2
20210804232614 79 239 0.0 3.0 0.00 0.01 0.29 89 1017.2
20210804232114 79 202 0.0 3.0 0.00 0.01 0.29 88 1017.3
20210804231614 79 264 1.0 4.0 0.00 0.01 0.29 88 1017.3
20210804231115 79 218 1.0 4.0 0.00 0.01 0.29 88 1017.5
20210804230615 80 255 0.0 3.0 0.00 0.01 0.29 88 1017.5
20210804230121 80 281 1.0 3.0 0.00 0.01 0.29 87 1017.3
20210804225614 80 255 1.0 3.0 0.00 0.01 0.29 87 1017.2
20210804225115 80 240 0.0 4.0 0.00 0.01 0.29 87 1017.2
20210804224615 80 131 0.0 4.0 0.00 0.01 0.29 86 1017.0
20210804224114 80 301 0.0 3.0 0.00 0.01 0.29 86 1016.9
20210804223614 81 223 1.0 5.0 0.00 0.01 0.29 86 1017.0
20210804223114 81 211 1.0 5.0 0.00 0.01 0.29 86 1016.9
20210804222614 81 259 0.0 3.0 0.00 0.01 0.29 86 1016.8
20210804222114 81 237 1.0 7.0 0.00 0.01 0.29 86 1016.9
20210804221614 81 260 1.0 7.0 0.00 0.01 0.29 85 1016.9
20210804221114 81 259 0.0 4.0 0.00 0.01 0.29 85 1016.9
20210804220614 81 259 1.0 6.0 0.00 0.01 0.29 85 1017.0
20210804220114 81 263 1.0 6.0 0.00 0.01 0.29 85 1016.9
20210804215614 82 226 1.0 5.0 0.00 0.01 0.29 85 1016.9
20210804215112 82 114 1.0 5.0 0.00 0.01 0.29 84 1017.0
20210804214612 82 257 1.0 5.0 0.00 0.01 0.29 85 1017.1
20210804214112 82 219 1.0 6.0 0.00 0.01 0.29 84 1017.1
20210804213611 82 202 2.0 6.0 0.00 0.01 0.29 84 1017.1
20210804213108 82 287 1.0 7.0 0.00 0.01 0.29 84 1017.1
20210804212610 82 27 1.0 7.0 0.00 0.01 0.29 83 1017.1
20210804212108 82 242 1.0 6.0 0.00 0.01 0.29 83 1017.1
20210804211608 82 143 2.0 10.0 0.00 0.01 0.29 84 1017.3
20210804211109 82 69 2.0 10.0 0.00 0.01 0.29 84 1017.3
20210804210610 82 110 2.0 10.0 0.00 0.01 0.29 84 1017.2
20210804210113 82 268 1.0 7.0 0.00 0.01 0.29 84 1017.4
20210804205611 82 161 1.0 7.0 0.00 0.01 0.29 84 1017.3
20210804205100 82 243 2.0 8.0 0.00 0.01 0.29 85 1017.2
20210804204553 82 215 2.0 8.0 0.00 0.01 0.29 85 1017.3
20210804204047 81 248 2.0 7.0 0.00 0.01 0.29 85 1017.3
20210804203541 82 283 2.0 8.0 0.00 0.01 0.29 85 1017.3
20210804203038 82 244 2.0 8.0 0.00 0.01 0.29 85 1017.4
20210804202529 82 224 2.0 8.0 0.00 0.01 0.29 85 1017.5
20210804202023 82 229 2.0 8.0 0.00 0.01 0.29 84 1017.5
20210804201518 82 89 2.0 8.0 0.00 0.01 0.29 85 1017.5
20210804201011 82 240 1.0 6.0 0.00 0.01 0.29 86 1017.5
20210804200505 82 245 2.0 8.0 0.00 0.01 0.29 85 1017.5
20210804200006 82 190 1.0 8.0 0.00 0.01 0.29 86 1017.5
20210804195453 82 232 1.0 6.0 0.00 0.01 0.29 85 1017.6
20210804194947 82 269 2.0 7.0 0.00 0.01 0.29 87 1017.6
20210804194442 82 235 1.0 7.0 0.00 0.01 0.29 87 1017.6
20210804193936 82 243 1.0 6.0 0.00 0.01 0.29 86 1017.7
20210804193429 82 245 1.0 8.0 0.00 0.01 0.29 87 1017.7
20210804192417 82 278 2.0 11.0 0.00 0.01 0.29 84 1017.8
20210804191912 82 259 1.0 6.0 0.00 0.01 0.29 87 1017.6
20210804191406 82 255 1.0 6.0 0.00 0.01 0.29 87 1017.6
20210804190859 83 210 1.0 6.0 0.00 0.01 0.29 87 1017.7
20210804190353 82 197 1.0 7.0 0.00 0.01 0.29 87 1017.7
20210804185847 82 241 2.0 8.0 0.00 0.01 0.29 87 1017.7
20210804185341 82 210 2.0 9.0 0.00 0.01 0.29 87 1017.7
20210804184835 82 184 2.0 10.0 0.00 0.01 0.29 86 1017.8
20210804184329 83 179 2.0 10.0 0.00 0.01 0.29 86 1017.7
20210804183823 83 283 2.0 8.0 0.00 0.01 0.29 85 1017.7
20210804183317 83 98 1.0 7.0 0.00 0.01 0.29 85 1017.8
20210804182811 83 226 1.0 6.0 0.00 0.01 0.29 86 1017.8
20210804182306 83 210 2.0 6.0 0.00 0.01 0.29 86 1017.8
20210804181800 83 153 1.0 12.0 0.00 0.01 0.29 85 1017.9
20210804181253 84 259 1.0 12.0 0.00 0.01 0.29 86 1017.9
20210804180747 83 324 2.0 11.0 0.00 0.01 0.29 87 1017.9
20210804180248 83 306 2.0 11.0 0.00 0.01 0.29 86 1018.0
20210804175746 82 254 2.0 9.0 0.00 0.01 0.29 88 1018.1
20210804175246 81 269 2.0 9.0 0.00 0.01 0.29 87 1018.1
20210804174746 81 147 2.0 7.0 0.00 0.01 0.29 89 1018.1
20210804174244 80 240 2.0 8.0 0.01 0.01 0.29 90 1018.1
20210804173744 80 160 2.0 8.0 0.01 0.01 0.29 90 1018.2
20210804173244 80 237 2.0 7.0 0.01 0.01 0.29 92 1018.3
20210804172744 79 233 2.0 8.0 0.01 0.01 0.29 92 1018.3
20210804172241 78 302 2.0 10.0 0.01 0.01 0.29 92 1018.3
20210804171741 78 238 2.0 10.0 0.01 0.01 0.29 93 1018.4
20210804171240 78 255 2.0 8.0 0.01 0.01 0.29 94 1018.4
20210804170740 77 136 2.0 7.0 0.01 0.01 0.29 94 1018.3
20210804170239 77 212 2.0 7.0 0.01 0.01 0.29 94 1018.4
20210804165738 76 271 1.0 6.0 0.01 0.01 0.29 95 1018.3
20210804165238 76 119 3.0 10.0 0.01 0.01 0.29 95 1018.5
20210804164738 76 233 3.0 10.0 0.01 0.01 0.29 95 1018.6
20210804164236 76 184 3.0 9.0 0.00 0.00 0.29 95 1018.6
20210804163734 75 212 3.0 9.0 0.00 0.00 0.28 95 1018.7
20210804163234 75 120 2.0 7.0 0.00 0.00 0.28 96 1018.7
20210804162728 75 229 1.0 4.0 0.00 0.00 0.28 96 1018.8
20210804162221 74 217 1.0 8.0 0.00 0.00 0.28 95 1018.9
20210804161715 74 214 1.0 8.0 0.00 0.00 0.28 95 1018.8
20210804161210 74 318 1.0 8.0 0.00 0.00 0.28 95 1018.9
20210804160703 74 270 1.0 8.0 0.00 0.00 0.28 95 1019.0
20210804160204 74 229 1.0 4.0 0.00 0.00 0.28 95 1019.1
20210804155319 75 291 2.0 12.0 0.24 3.65 0.25 94 1019.1
20210804154819 75 169 3.0 12.0 0.17 3.58 0.18 94 1019.1
20210804154319 76 244 3.0 11.0 0.12 3.53 0.14 94 1019.1
20210804153813 76 286 1.0 6.0 0.08 3.49 0.09 93 1019.1
20210804153314 77 252 1.0 9.0 0.06 3.47 0.07 93 1018.9
20210804152814 78 114 3.0 20.0 0.04 3.44 0.05 92 1018.6
20210804152314 79 189 2.0 20.0 0.03 3.43 0.03 89 1018.5
20210804151814 82 100 1.0 6.0 0.02 3.42 0.02 89 1018.2
20210804151314 82 262 1.0 8.0 0.01 3.41 0.01 88 1018.0
20210804150813 82 141 1.0 8.0 0.01 3.41 0.01 89 1017.8
20210804150314 82 229 1.0 11.0 0.01 3.41 0.01 90 1017.7
20210804145813 82 135 2.0 11.0 0.01 3.41 0.01 89 1017.7
20210804145314 81 216 1.0 8.0 0.01 3.41 0.01 90 1017.6
20210804144813 81 238 0.0 6.0 0.01 3.41 0.01 91 1017.6
20210804144313 81 233 0.0 4.0 0.01 3.41 0.01 91 1017.5
20210804143309 81 230 1.0 5.0 0.01 3.41 0.01 89 1017.4
20210804142810 81 185 0.0 3.0 0.00 3.40 0.00 89 1017.4
20210804142310 81 267 0.0 3.0 0.00 3.40 0.00 88 1017.3
20210804141809 81 273 1.0 5.0 0.00 3.40 0.00 88 1017.4
20210804141309 81 228 2.0 5.0 0.00 3.40 0.00 87 1017.5
20210804140810 82 292 2.0 6.0 0.00 3.40 0.00 85 1017.6
20210804140310 83 263 1.0 6.0 0.00 3.40 0.00 85 1017.7
20210804135809 83 307 1.0 6.0 0.00 3.40 0.00 84 1017.7
20210804135309 83 278 1.0 7.0 0.00 3.40 0.00 85 1017.6
20210804134805 83 147 0.0 7.0 0.00 3.40 0.00 88 1017.5
20210804134305 82 131 0.0 4.0 0.00 3.40 0.00 88 1017.5